Back to catalog

FENGYUN 1C DEB

AliveSSO
NORAD 31830·DEBRIS·🇨🇳 China

Launched May 10, 1999 from Taiyuan Satellite Launch Center

Loading…

Next Passes (next 24 hours)

TLE

FreshSource: Space-Track

Epoch: Sep 14, 2026, 06:10 UTC

1 31830U 99025CHU 26257.25712976  .00001244  00000-0  10115-2 0  9992
2 31830  99.1685   1.2871 0182266 297.0048  90.0427 13.84469182965513

Track FENGYUN 1C DEB in real time with AllMySat

Download on the App Store